Hourly Weather Roundup
Issued by NWS Central Illinois

Home | Current Version | Previous Version | Text Only | Print | Product List | Glossary On
Versions: 1 2 3 4 5 6 7 8 9 10 11 12 13 14 15 16 17 18 19 20 21 22 23 24 25 26 27 28 29 30 31 32 33 34 35 36 37 38 39 40 41 42 43 44 45 46 47 48 49 50
000
NZUS43 KILX 271210
HWRILX

AREA WEATHER ROUNDUP
NATIONAL WEATHER SERVICE, LINCOLN IL
700 AM CDT WED MAY 27 2015


CITY           SKY/WX    TMP DP  RH WIND       PRES   REMARKS
BLOOMINGTON    PTSUNNY   66  64  93 SW10      30.00R
6HR MIN TEMP:  65; 6HR MAX TEMP:  68; 6HR PCP:  0.01;

CHAMPAIGN      MOSUNNY   68  63  84 SW8       30.01R
6HR MIN TEMP:  64; 6HR MAX TEMP:  68;

DANVILLE       PTSUNNY   66  63  88 SW9       29.98S
6HR MIN TEMP:  64; 6HR MAX TEMP:  66;

DECATUR        PTSUNNY   67  62  84 SW10      30.02R
6HR MIN TEMP:  66; 6HR MAX TEMP:  68;

EFFINGHAM      LGT RAIN  67  62  85 S7        30.07R
FLORA          MOSUNNY   65  63  90 S7        30.08R
6HR MIN TEMP:  64; 6HR MAX TEMP:  67;

GALESBURG      SUNNY     64  59  86 W7        29.96F
JACKSONVILLE   PTSUNNY   68  64  84 SW12      30.01R
6HR MIN TEMP:  67; 6HR MAX TEMP:  70;

LACON          MOSUNNY   65  58  77 W8        29.95S
6HR MIN TEMP:  63; 6HR MAX TEMP:  65;

LAWRENCEVILLE  MOSUNNY   67  63  87 S9        30.08R
6HR MIN TEMP:  62; 6HR MAX TEMP:  68;

LITCHFIELD     RAIN      65  61  89 S5        30.03R
$$


CITY           SKY/WX    TMP DP  RH WIND       PRES   REMARKS
LINCOLN        MOSUNNY   68  63  83 SW5       29.98R
6HR MIN TEMP:  67; 6HR MAX TEMP:  69;

MACOMB         MOSUNNY   64  62  96 W6        29.99F
MATTOON        PTSUNNY   66  63  90 S12       30.03R
6HR MIN TEMP:  65; 6HR MAX TEMP:  67;

MT CARMEL AP   MOSUNNY   70  61  73 S7        30.08R
OLNEY-NOBLE AP MOSUNNY   64  63  94 S7        30.08R
PARIS          MOSUNNY   69  64  84 SW15      30.04R
6HR MIN TEMP:  66; 6HR MAX TEMP:  69;

PEORIA         MOSUNNY   67  63  87 W6        29.96S
6HR MIN TEMP:  65; 6HR MAX TEMP:  71; 6HR PCP:  0.01;

PONTIAC        PTSUNNY   67  64  89 SW10      29.97S
RANTOUL        CLOUDY    68  64  86 SW12      30.00R
6HR MIN TEMP:  66; 6HR MAX TEMP:  70;

ROBINSON       MOSUNNY   67  63  85 S8        30.06F
6HR MIN TEMP:  65; 6HR MAX TEMP:  68;

SPRINGFIELD    PTSUNNY   68  63  84 SW12      30.01R
6HR MIN TEMP:  67; 6HR MAX TEMP:  70; 6HR PCP:  0.01;

TAYLORVILLE    PTSUNNY   64  63  94 S10       30.02R
$$

...REGIONAL REPORTS...


CITY           SKY/WX    TMP DP  RH WIND       PRES   REMARKS
CHICAGO O`HARE PTSUNNY   64  59  83 W15       29.92R
KANKAKEE       MOSUNNY   67  63  87 SW13      29.97R
MOLINE         MOSUNNY   62  58  86 SW8       29.95R
MOUNT VERNON   PTSUNNY   64  61  88 S3        30.07R
PITTSFIELD     CLOUDY    66  63  89 S8        30.03R
QUINCY         PTSUNNY   65  63  93 W7        29.99R
ROCKFORD       CLOUDY    64  59  83 SW10      29.92R
$$


CITY           SKY/WX    TMP DP  RH WIND       PRES   REMARKS
BURLINGTON     SUNNY     63  61  93 W7        29.96S
CEDAR RAPIDS   MOSUNNY   59  59 100 W8        29.96R
DES MOINES     MOSUNNY   59  54  83 W6        30.00R
KIRKSVILLE     SUNNY     61  59  93 W7        30.03R
OTTUMWA        SUNNY     59  57  93 W6        29.99R
ST LOUIS       LGT RAIN  70  63  78 SW13      30.05R
$$


CITY           SKY/WX    TMP DP  RH WIND       PRES   REMARKS
TERRE HAUTE    MOSUNNY   66  63  90 S8        30.04F
EVANSVILLE     MOSUNNY   65  61  87 S3        30.11R FOG
INDIANAPOLIS   PTSUNNY   66  61  84 S10       30.05R
LAFAYETTE      LGT RAIN  66  62  87 SW8       30.01R
MADISON        PTSUNNY   61  57  87 W3        29.88R
MILWAUKEE      PTSUNNY   63  58  83 W10       29.87R
$$





USA.gov is the U.S. government's official web portal to all federal, state and local government web resources and services.